Home > Weather > Dharamshala > Past weeks

Flag for India Weather for the Past 2 Weeks in Dharamshala, Himachal Pradesh, India

Now
55 °F

Fog.


Feels Like: 55 °F
Forecast: 34 / 51 °F
Wind: 5 mph from West

Location: Amritsar Airport

Current Time: Feb 11, 2016 at 7:08:53 PM

Latest Report: Feb 11, 2016 at 6:30 PM


Visibility: 2 mi

Pressure: 29.92 "Hg (25.37 "Hg at 1382m altitude)

Humidity: 100%

Dew point: 55 °F

Location of DharamshalaLocation

Historic Weather in Dharamshala — Graph

°F

Dharamshala Temperature Yesterday

Maximum temperature yesterday: 72 °F (at 3:30 PM)
Minimum temperature yesterday: 45 °F (at 2:35 AM)
Average temperature yesterday: 58 °F

High & Low Weather Summary for the Past Weeks

 TemperatureHumidityPressure
High72 °F (Feb 4, 1:30 PM)100% (Jan 27, 6:30 PM)30.15 "Hg (Jan 27, 6:30 PM)
Low41 °F (Feb 1, 6:00 AM)0% (Feb 10, 9:30 PM)29.65 "Hg (Feb 11, 6:30 AM)
Average58 °F86%30.00 "Hg
* Reported Jan 27 5:30 PM — Feb 11 6:00 PM, Dharamshala, Weather by CustomWeather, © 2016

Note: Actual official high and low records may vary slightly from our data, if they occured in-between our weather recording intervals... More about our weather records

Advertising

Dharamshala Weather History for the Previous 24 Hours

 ConditionsComfort  
Time TempWeatherWind HumidityBarometerVisibility
6:00 PM
Thu, Feb 11
59 °FFog.No wind94%29.89 "Hg1 mi
5:30 PM61 °FFog.6 mph0%29.86 "Hg1 mi
5:00 PM61 °FFog.3 mph83%29.86 "Hg1 mi
4:30 PM61 °FFog.3 mph83%29.86 "Hg1 mi
4:00 PM59 °FFog.3 mph82%29.83 "Hg1 mi
3:30 PM59 °FFog.6 mph82%29.83 "Hg1 mi
3:00 PM59 °FFog.7 mph82%29.83 "Hg1 mi
2:00 PM59 °FFog.9 mph77%29.83 "Hg1 mi
1:30 PM59 °FBroken clouds.10 mph68%29.80 "Hg1 mi
1:00 PM61 °FBroken clouds.13 mph63%29.83 "Hg1 mi
12:30 PM61 °FScattered clouds.14 mph59%29.80 "Hg2 mi
12:00 PM61 °FFog.16 mph59%29.80 "Hg2 mi
11:30 AM61 °FFog.16 mph63%29.80 "Hg2 mi
11:00 AM61 °FFog.14 mph77%29.77 "Hg2 mi
10:30 AM59 °FFog.16 mph100%29.77 "Hg2 mi
10:00 AM59 °FFog.20 mph100%29.77 "Hg2 mi
9:30 AM59 °FFog.17 mph100%29.74 "Hg2 mi
9:00 AM59 °FFog.18 mph100%29.71 "Hg2 mi
8:00 AM61 °FFog.16 mph100%29.68 "Hg2 mi
7:30 AM61 °FFog.13 mph100%29.68 "Hg2 mi
7:00 AM61 °FFog.10 mph100%29.68 "Hg2 mi
6:30 AM61 °FFog.16 mph100%29.65 "Hg2 mi
5:30 AM61 °FFog.14 mph100%29.68 "Hg2 mi
5:00 AM61 °FFog.14 mph100%29.68 "Hg2 mi
4:30 AM59 °FFog.10 mph100%29.68 "Hg2 mi
4:00 AM57 °FFog.12 mph100%29.68 "Hg2 mi
3:00 AM59 °FFog.7 mph100%29.74 "Hg2 mi
2:30 AM59 °FFog.10 mph100%29.74 "Hg2 mi
2:00 AM61 °FFog.10 mph100%29.74 "Hg2 mi
1:30 AM61 °FFog.9 mph100%29.77 "Hg2 mi
1:00 AM61 °FFog.12 mph100%29.77 "Hg2 mi
12:30 AM59 °FFog.8 mph100%29.80 "Hg1 mi
12:00 AM61 °FDrizzle. Mostly cloudy.2 mph100%29.83 "Hg1 mi
11:30 PM
Wed, Feb 10
63 °FDrizzle. Mostly cloudy.3 mph100%29.83 "Hg1 mi
11:00 PM61 °FFog.5 mph100%29.83 "Hg1 mi
10:30 PM61 °FFog.5 mph100%29.83 "Hg1 mi
10:00 PM63 °FFog.6 mph100%29.83 "Hg1 mi
9:30 PM61 °FFog.No wind0%29.83 "Hg1 mi
9:00 PM61 °FFog.6 mph100%29.83 "Hg1 mi
8:30 PM61 °FFog.5 mph100%29.83 "Hg1 mi
8:00 PM63 °FFog.2 mph100%29.83 "Hg1 mi
7:30 PM63 °FFog.6 mph100%29.83 "Hg1 mi
7:00 PM63 °FFog.No wind100%29.83 "Hg1 mi
Weather by CustomWeather, © 2016

See weather overviewHow to use our weather pages